| time (UTC) | temp C | wind direction | speed KPH | gust KPH | rain 1hr cm | rain 24hr cm | rain mn cm | humidity % | barometer mb |
| 20260506213003 | 9 | 28 | 8.0 | 17.7 | 0.00 | 0.00 | 0.00 | 74 | 1011.3 |
| 20260506212503 | 9 | 27 | 8.0 | 17.7 | 0.00 | 0.00 | 0.00 | 74 | 1011.3 |
| 20260506212003 | 9 | 31 | 8.0 | 12.9 | 0.00 | 0.00 | 0.00 | 73 | 1011.4 |
| 20260506211503 | 10 | 33 | 6.4 | 12.9 | 0.00 | 0.00 | 0.00 | 73 | 1011.2 |
| 20260506211003 | 10 | 32 | 6.4 | 16.1 | 0.00 | 0.00 | 0.00 | 73 | 1011.2 |
| 20260506210503 | 10 | 26 | 6.4 | 19.3 | 0.00 | 0.00 | 0.00 | 72 | 1011.2 |
| 20260506210003 | 10 | 24 | 8.0 | 19.3 | 0.00 | 0.00 | 0.00 | 72 | 1011.3 |
| 20260506205503 | 10 | 32 | 6.4 | 19.3 | 0.00 | 0.00 | 0.00 | 71 | 1011.3 |
| 20260506205003 | 10 | 35 | 6.4 | 12.9 | 0.00 | 0.00 | 0.00 | 71 | 1011.1 |
| 20260506204503 | 9 | 34 | 4.8 | 12.9 | 0.00 | 0.00 | 0.00 | 71 | 1011.2 |
| 20260506204003 | 10 | 30 | 4.8 | 11.3 | 0.00 | 0.00 | 0.00 | 70 | 1011.0 |
| 20260506203718 | 10 | 28 | 4.8 | 11.3 | 0.00 | 0.00 | 0.00 | 70 | 1011.0 |
| 20260506203003 | 10 | 21 | 4.8 | 11.3 | 0.00 | 0.00 | 0.00 | 69 | 1011.1 |
| 20260506202503 | 10 | 24 | 4.8 | 8.0 | 0.00 | 0.00 | 0.00 | 69 | 1011.0 |
| 20260506202216 | 10 | 23 | 3.2 | 8.0 | 0.00 | 0.00 | 0.00 | 68 | 1011.0 |
| 20260506201503 | 10 | 28 | 3.2 | 6.4 | 0.00 | 0.00 | 0.00 | 68 | 1011.3 |
| 20260506201003 | 10 | 29 | 3.2 | 6.4 | 0.00 | 0.00 | 0.00 | 67 | 1010.9 |
| 20260506200717 | 10 | 32 | 3.2 | 6.4 | 0.00 | 0.00 | 0.00 | 67 | 1010.9 |
| 20260506200003 | 11 | 39 | 3.2 | 11.3 | 0.00 | 0.00 | 0.00 | 67 | 1010.9 |
| 20260506195717 | 11 | 37 | 4.8 | 12.9 | 0.00 | 0.00 | 0.00 | 66 | 1011.0 |
| 20260506195003 | 11 | 28 | 6.4 | 12.9 | 0.00 | 0.00 | 0.00 | 66 | 1010.9 |
| 20260506194503 | 11 | 23 | 4.8 | 12.9 | 0.00 | 0.00 | 0.00 | 66 | 1010.6 |
| 20260506194218 | 11 | 28 | 4.8 | 12.9 | 0.00 | 0.00 | 0.00 | 66 | 1010.8 |
| 20260506193504 | 11 | 31 | 4.8 | 12.9 | 0.00 | 0.00 | 0.00 | 66 | 1010.6 |
| 20260506193003 | 11 | 31 | 6.4 | 19.3 | 0.00 | 0.00 | 0.00 | 66 | 1010.5 |
| 20260506192503 | 11 | 29 | 6.4 | 19.3 | 0.00 | 0.00 | 0.00 | 66 | 1010.5 |
| 20260506192003 | 11 | 23 | 6.4 | 16.1 | 0.00 | 0.00 | 0.00 | 66 | 1010.6 |
| 20260506191503 | 11 | 25 | 6.4 | 16.1 | 0.00 | 0.00 | 0.00 | 65 | 1010.4 |
| 20260506191003 | 11 | 29 | 8.0 | 16.1 | 0.00 | 0.00 | 0.00 | 65 | 1010.2 |
| 20260506190717 | 11 | 28 | 8.0 | 16.1 | 0.00 | 0.00 | 0.00 | 65 | 1010.4 |
| 20260506190007 | 12 | 30 | 6.4 | 12.9 | 0.00 | 0.00 | 0.00 | 64 | 1010.3 |
| 20260506185503 | 12 | 18 | 6.4 | 12.9 | 0.00 | 0.00 | 0.00 | 64 | 1010.1 |
| 20260506185003 | 12 | 26 | 6.4 | 19.3 | 0.00 | 0.00 | 0.00 | 63 | 1010.1 |
| 20260506184717 | 12 | 27 | 6.4 | 19.3 | 0.00 | 0.00 | 0.00 | 63 | 1010.0 |
| 20260506184003 | 12 | 29 | 4.8 | 16.1 | 0.00 | 0.00 | 0.00 | 62 | 1010.0 |
| 20260506183503 | 12 | 28 | 4.8 | 16.1 | 0.00 | 0.00 | 0.00 | 61 | 1009.8 |
| 20260506183003 | 12 | 34 | 3.2 | 11.3 | 0.00 | 0.00 | 0.00 | 60 | 1009.7 |
| 20260506182503 | 12 | 47 | 4.8 | 11.3 | 0.00 | 0.00 | 0.00 | 60 | 1009.9 |
| 20260506182218 | 12 | 43 | 4.8 | 11.3 | 0.00 | 0.00 | 0.00 | 59 | 1009.8 |
| 20260506181503 | 12 | 34 | 6.4 | 12.9 | 0.00 | 0.00 | 0.00 | 58 | 1009.7 |
| 20260506181003 | 12 | 42 | 6.4 | 16.1 | 0.00 | 0.00 | 0.00 | 58 | 1009.8 |
| 20260506180503 | 12 | 38 | 6.4 | 16.1 | 0.00 | 0.00 | 0.00 | 57 | 1009.8 |
| 20260506180004 | 12 | 36 | 6.4 | 16.1 | 0.00 | 0.00 | 0.00 | 57 | 1009.7 |
| 20260506175503 | 13 | 41 | 6.4 | 17.7 | 0.00 | 0.00 | 0.00 | 57 | 1009.5 |
| 20260506175003 | 13 | 37 | 8.0 | 17.7 | 0.00 | 0.00 | 0.00 | 56 | 1009.6 |
| 20260506174503 | 13 | 35 | 6.4 | 16.1 | 0.00 | 0.00 | 0.00 | 56 | 1009.6 |
| 20260506174003 | 13 | 24 | 4.8 | 12.9 | 0.00 | 0.00 | 0.00 | 56 | 1009.5 |
| 20260506173716 | 13 | 18 | 4.8 | 12.9 | 0.00 | 0.00 | 0.00 | 56 | 1009.3 |
| 20260506173218 | 13 | 28 | 4.8 | 12.9 | 0.00 | 0.00 | 0.00 | 56 | 1009.3 |
| 20260506172503 | 13 | 34 | 6.4 | 16.1 | 0.00 | 0.00 | 0.00 | 55 | 1009.4 |
| 20260506172217 | 13 | 33 | 6.4 | 16.1 | 0.00 | 0.00 | 0.00 | 55 | 1009.4 |
| 20260506171503 | 13 | 41 | 6.4 | 16.1 | 0.00 | 0.00 | 0.00 | 55 | 1009.4 |
| 20260506171003 | 13 | 33 | 8.0 | 17.7 | 0.00 | 0.00 | 0.00 | 55 | 1009.4 |
| 20260506170503 | 13 | 20 | 8.0 | 17.7 | 0.00 | 0.00 | 0.00 | 54 | 1009.3 |
| 20260506170003 | 13 | 21 | 8.0 | 17.7 | 0.00 | 0.00 | 0.00 | 54 | 1009.3 |
| 20260506165503 | 13 | 36 | 8.0 | 19.3 | 0.00 | 0.00 | 0.00 | 53 | 1009.2 |
| 20260506165003 | 13 | 39 | 6.4 | 19.3 | 0.00 | 0.00 | 0.00 | 53 | 1009.3 |
| 20260506164503 | 13 | 34 | 6.4 | 22.5 | 0.00 | 0.00 | 0.00 | 52 | 1009.2 |
| 20260506164003 | 13 | 41 | 8.0 | 22.5 | 0.00 | 0.00 | 0.00 | 52 | 1009.3 |
| 20260506163503 | 13 | 43 | 8.0 | 17.7 | 0.00 | 0.00 | 0.00 | 51 | 1009.3 |
| 20260506163003 | 13 | 35 | 8.0 | 17.7 | 0.00 | 0.00 | 0.00 | 51 | 1009.1 |
| 20260506162503 | 13 | 35 | 8.0 | 17.7 | 0.00 | 0.00 | 0.00 | 50 | 1009.0 |
| 20260506162003 | 13 | 42 | 9.7 | 22.5 | 0.00 | 0.00 | 0.00 | 49 | 1009.2 |
| 20260506161718 | 13 | 39 | 9.7 | 22.5 | 0.00 | 0.00 | 0.00 | 50 | 1009.3 |
| 20260506161003 | 13 | 19 | 9.7 | 24.1 | 0.00 | 0.00 | 0.00 | 49 | 1009.2 |
| 20260506160718 | 13 | 26 | 11.3 | 24.1 | 0.00 | 0.00 | 0.00 | 48 | 1009.2 |
| 20260506160003 | 14 | 47 | 9.7 | 24.1 | 0.00 | 0.00 | 0.00 | 48 | 1009.1 |
| 20260506155503 | 14 | 44 | 9.7 | 22.5 | 0.00 | 0.00 | 0.00 | 48 | 1009.2 |
| 20260506155003 | 14 | 32 | 9.7 | 22.5 | 0.00 | 0.00 | 0.00 | 48 | 1009.3 |
| 20260506154503 | 14 | 26 | 9.7 | 22.5 | 0.00 | 0.00 | 0.00 | 47 | 1009.3 |
| 20260506154003 | 14 | 30 | 9.7 | 24.1 | 0.00 | 0.00 | 0.00 | 47 | 1009.3 |
| 20260506153503 | 14 | 30 | 11.3 | 24.1 | 0.00 | 0.00 | 0.00 | 46 | 1009.2 |
| 20260506153217 | 14 | 33 | 11.3 | 24.1 | 0.00 | 0.00 | 0.00 | 46 | 1009.1 |
| 20260506152718 | 14 | 38 | 9.7 | 24.1 | 0.00 | 0.00 | 0.00 | 46 | 1009.5 |
| 20260506152217 | 14 | 37 | 11.3 | 24.1 | 0.00 | 0.00 | 0.00 | 47 | 1009.4 |
| 20260506151503 | 15 | 38 | 11.3 | 29.0 | 0.00 | 0.00 | 0.00 | 46 | 1009.2 |
| 20260506151216 | 15 | 42 | 11.3 | 29.0 | 0.00 | 0.00 | 0.00 | 46 | 1009.3 |
| 20260506150503 | 15 | 44 | 8.0 | 29.0 | 0.00 | 0.00 | 0.00 | 45 | 1009.3 |
| 20260506150003 | 15 | 33 | 6.4 | 17.7 | 0.00 | 0.00 | 0.00 | 44 | 1009.4 |
| 20260506145503 | 15 | 41 | 8.0 | 17.7 | 0.00 | 0.00 | 0.00 | 43 | 1009.1 |
| 20260506145216 | 15 | 35 | 9.7 | 24.1 | 0.00 | 0.00 | 0.00 | 43 | 1009.3 |
| 20260506144717 | 15 | 30 | 9.7 | 24.1 | 0.00 | 0.00 | 0.00 | 44 | 1009.3 |
| 20260506144216 | 15 | 38 | 11.3 | 24.1 | 0.00 | 0.00 | 0.00 | 45 | 1009.3 |
| 20260506143503 | 15 | 45 | 11.3 | 24.1 | 0.00 | 0.00 | 0.00 | 44 | 1009.3 |
| 20260506143003 | 15 | 43 | 11.3 | 24.1 | 0.00 | 0.00 | 0.00 | 45 | 1009.2 |
| 20260506142503 | 15 | 41 | 9.7 | 24.1 | 0.00 | 0.00 | 0.00 | 45 | 1009.3 |
| 20260506142003 | 15 | 44 | 9.7 | 25.7 | 0.00 | 0.00 | 0.00 | 44 | 1009.1 |
| 20260506141717 | 15 | 42 | 9.7 | 30.6 | 0.00 | 0.00 | 0.00 | 45 | 1009.3 |
| 20260506141003 | 15 | 35 | 11.3 | 30.6 | 0.00 | 0.00 | 0.00 | 46 | 1009.3 |
| 20260506140503 | 15 | 43 | 9.7 | 33.8 | 0.00 | 0.00 | 0.00 | 47 | 1009.2 |
| 20260506140003 | 15 | 44 | 11.3 | 33.8 | 0.00 | 0.00 | 0.00 | 47 | 1009.3 |
| 20260506135503 | 15 | 36 | 11.3 | 33.8 | 0.00 | 0.00 | 0.00 | 46 | 1009.1 |
| 20260506135003 | 15 | 28 | 8.0 | 19.3 | 0.00 | 0.00 | 0.00 | 47 | 1009.3 |
| 20260506134503 | 15 | 38 | 9.7 | 33.8 | 0.00 | 0.00 | 0.00 | 46 | 1009.1 |
| 20260506134218 | 15 | 37 | 12.9 | 33.8 | 0.00 | 0.00 | 0.00 | 45 | 1009.2 |
| 20260506133503 | 15 | 38 | 12.9 | 33.8 | 0.00 | 0.00 | 0.00 | 46 | 1009.3 |
| 20260506133003 | 15 | 36 | 12.9 | 29.0 | 0.00 | 0.00 | 0.00 | 47 | 1009.0 |
| 20260506132717 | 15 | 42 | 12.9 | 29.0 | 0.00 | 0.00 | 0.00 | 46 | 1009.1 |
| 20260506132003 | 15 | 53 | 12.9 | 29.0 | 0.00 | 0.00 | 0.00 | 48 | 1009.1 |
| 20260506131503 | 15 | 37 | 11.3 | 25.7 | 0.00 | 0.00 | 0.00 | 48 | 1008.9 |
| 20260506131003 | 15 | 22 | 9.7 | 25.7 | 0.00 | 0.00 | 0.00 | 47 | 1009.0 |
| 20260506130503 | 15 | 18 | 9.7 | 25.7 | 0.00 | 0.00 | 0.00 | 48 | 1008.9 |
| 20260506130004 | 15 | 24 | 9.7 | 24.1 | 0.00 | 0.00 | 0.00 | 48 | 1009.0 |
| 20260506125503 | 15 | 29 | 12.9 | 24.1 | 0.00 | 0.00 | 0.00 | 49 | 1009.0 |
| 20260506125003 | 15 | 39 | 12.9 | 25.7 | 0.00 | 0.00 | 0.00 | 49 | 1009.0 |
| 20260506124503 | 15 | 36 | 11.3 | 25.7 | 0.00 | 0.00 | 0.00 | 49 | 1009.1 |
| 20260506124218 | 15 | 36 | 11.3 | 35.4 | 0.00 | 0.00 | 0.00 | 49 | 1009.0 |
| 20260506123503 | 15 | 46 | 11.3 | 35.4 | 0.00 | 0.00 | 0.00 | 50 | 1009.0 |
| 20260506123218 | 15 | 43 | 11.3 | 35.4 | 0.00 | 0.00 | 0.00 | 50 | 1008.9 |
| 20260506122503 | 15 | 29 | 12.9 | 29.0 | 0.00 | 0.00 | 0.00 | 50 | 1008.8 |
| 20260506122003 | 15 | 39 | 11.3 | 29.0 | 0.00 | 0.00 | 0.00 | 51 | 1008.8 |
| 20260506121716 | 15 | 40 | 11.3 | 29.0 | 0.00 | 0.00 | 0.00 | 51 | 1008.9 |
| 20260506121003 | 14 | 24 | 9.7 | 24.1 | 0.00 | 0.00 | 0.00 | 51 | 1008.8 |
| 20260506120717 | 14 | 24 | 9.7 | 24.1 | 0.00 | 0.00 | 0.00 | 52 | 1008.8 |
| 20260506120003 | 14 | 46 | 9.7 | 22.5 | 0.00 | 0.00 | 0.00 | 52 | 1008.7 |
| 20260506115503 | 14 | 27 | 11.3 | 24.1 | 0.00 | 0.00 | 0.00 | 52 | 1008.8 |
| 20260506115003 | 14 | 22 | 9.7 | 24.1 | 0.00 | 0.00 | 0.00 | 51 | 1008.8 |
| 20260506114503 | 14 | 38 | 11.3 | 29.0 | 0.00 | 0.00 | 0.00 | 52 | 1008.7 |
| 20260506114003 | 14 | 44 | 16.1 | 30.6 | 0.00 | 0.00 | 0.00 | 52 | 1008.9 |
| 20260506113503 | 14 | 42 | 14.5 | 30.6 | 0.00 | 0.00 | 0.00 | 52 | 1008.8 |
| 20260506113003 | 14 | 38 | 12.9 | 33.8 | 0.00 | 0.00 | 0.00 | 52 | 1008.7 |
| 20260506112718 | 14 | 47 | 11.3 | 33.8 | 0.00 | 0.00 | 0.00 | 53 | 1008.6 |
| 20260506112003 | 14 | 44 | 12.9 | 29.0 | 0.00 | 0.00 | 0.00 | 53 | 1009.0 |
| 20260506111503 | 13 | 30 | 12.9 | 29.0 | 0.00 | 0.00 | 0.00 | 53 | 1009.0 |
| 20260506111217 | 13 | 28 | 11.3 | 29.0 | 0.00 | 0.00 | 0.00 | 52 | 1009.0 |
| 20260506110503 | 13 | 30 | 8.0 | 24.1 | 0.00 | 0.00 | 0.00 | 52 | 1008.8 |
| 20260506110003 | 13 | 35 | 8.0 | 24.1 | 0.00 | 0.00 | 0.00 | 53 | 1009.0 |
| 20260506105503 | 13 | 38 | 8.0 | 24.1 | 0.00 | 0.00 | 0.00 | 54 | 1008.8 |
| 20260506105003 | 13 | 36 | 9.7 | 24.1 | 0.00 | 0.00 | 0.00 | 54 | 1008.9 |
| 20260506104503 | 13 | 36 | 12.9 | 30.6 | 0.00 | 0.00 | 0.00 | 55 | 1009.2 |
| 20260506104003 | 13 | 38 | 12.9 | 30.6 | 0.00 | 0.00 | 0.00 | 55 | 1009.0 |
| 20260506103503 | 13 | 23 | 11.3 | 30.6 | 0.00 | 0.00 | 0.00 | 55 | 1009.1 |
| 20260506103003 | 13 | 19 | 11.3 | 24.1 | 0.00 | 0.00 | 0.00 | 55 | 1008.9 |
| 20260506102503 | 13 | 39 | 12.9 | 24.1 | 0.00 | 0.00 | 0.00 | 56 | 1009.0 |
| 20260506102003 | 13 | 36 | 11.3 | 24.1 | 0.00 | 0.00 | 0.00 | 55 | 1008.9 |
| 20260506101504 | 13 | 29 | 11.3 | 24.1 | 0.00 | 0.00 | 0.00 | 55 | 1008.9 |
| 20260506101003 | 13 | 30 | 12.9 | 29.0 | 0.00 | 0.00 | 0.00 | 55 | 1009.0 |
| 20260506100718 | 13 | 30 | 11.3 | 29.0 | 0.00 | 0.00 | 0.00 | 55 | 1009.2 |
| 20260506100003 | 13 | 35 | 9.7 | 25.7 | 0.00 | 0.00 | 0.00 | 56 | 1009.0 |
| 20260506095503 | 13 | 30 | 12.9 | 25.7 | 0.00 | 0.00 | 0.00 | 56 | 1009.1 |
| 20260506095003 | 13 | 34 | 14.5 | 43.5 | 0.00 | 0.00 | 0.00 | 56 | 1009.3 |
| 20260506094717 | 12 | 29 | 14.5 | 43.5 | 0.00 | 0.00 | 0.00 | 56 | 1009.3 |
| 20260506094003 | 12 | 18 | 14.5 | 43.5 | 0.00 | 0.00 | 0.00 | 56 | 1009.2 |
| 20260506093503 | 12 | 20 | 14.5 | 35.4 | 0.00 | 0.00 | 0.00 | 57 | 1009.1 |
| 20260506093003 | 12 | 32 | 14.5 | 35.4 | 0.00 | 0.00 | 0.00 | 57 | 1009.3 |
| 20260506092503 | 12 | 27 | 12.9 | 35.4 | 0.00 | 0.00 | 0.00 | 57 | 1009.0 |
| 20260506092216 | 12 | 24 | 12.9 | 30.6 | 0.00 | 0.00 | 0.00 | 57 | 1009.0 |
| 20260506091717 | 12 | 26 | 12.9 | 30.6 | 0.00 | 0.00 | 0.00 | 58 | 1009.2 |
| 20260506091003 | 12 | 30 | 16.1 | 35.4 | 0.00 | 0.00 | 0.00 | 58 | 1009.3 |
| 20260506090503 | 12 | 35 | 19.3 | 35.4 | 0.00 | 0.00 | 0.00 | 59 | 1009.3 |
| 20260506090003 | 12 | 40 | 19.3 | 35.4 | 0.00 | 0.00 | 0.00 | 59 | 1009.2 |
| 20260506085503 | 12 | 29 | 19.3 | 37.0 | 0.00 | 0.00 | 0.00 | 59 | 1009.2 |
| 20260506085003 | 12 | 26 | 12.9 | 37.0 | 0.00 | 0.00 | 0.00 | 60 | 1009.3 |
| 20260506084717 | 12 | 27 | 12.9 | 37.0 | 0.00 | 0.00 | 0.00 | 60 | 1009.0 |
| 20260506084218 | 12 | 26 | 12.9 | 33.8 | 0.00 | 0.00 | 0.00 | 61 | 1009.0 |
| 20260506083503 | 12 | 35 | 14.5 | 33.8 | 0.00 | 0.00 | 0.00 | 60 | 1009.2 |
| 20260506083003 | 12 | 39 | 16.1 | 30.6 | 0.00 | 0.00 | 0.00 | 62 | 1009.1 |
| 20260506082503 | 11 | 27 | 14.5 | 30.6 | 0.00 | 0.00 | 0.00 | 63 | 1009.3 |
| 20260506082003 | 11 | 32 | 12.9 | 29.0 | 0.00 | 0.00 | 0.00 | 63 | 1009.0 |
| 20260506081503 | 11 | 35 | 14.5 | 29.0 | 0.00 | 0.00 | 0.00 | 63 | 1009.1 |
| 20260506081003 | 11 | 42 | 14.5 | 29.0 | 0.00 | 0.00 | 0.00 | 62 | 1009.1 |
| 20260506080503 | 11 | 43 | 14.5 | 33.8 | 0.00 | 0.00 | 0.00 | 64 | 1009.0 |
| 20260506080218 | 11 | 28 | 12.9 | 33.8 | 0.00 | 0.00 | 0.00 | 64 | 1009.1 |
| 20260506073503 | 10 | 30 | 11.3 | 25.7 | 0.00 | 0.00 | 0.00 | 68 | 1009.1 |
| 20260506073003 | 10 | 25 | 12.9 | 25.7 | 0.00 | 0.00 | 0.00 | 68 | 1009.0 |
| 20260506072503 | 10 | 26 | 11.3 | 24.1 | 0.00 | 0.00 | 0.00 | 69 | 1009.1 |
| 20260506072003 | 10 | 19 | 9.7 | 22.5 | 0.00 | 0.00 | 0.00 | 70 | 1009.2 |
| 20260506071503 | 10 | 27 | 9.7 | 22.5 | 0.00 | 0.00 | 0.00 | 70 | 1009.1 |
| 20260506071218 | 10 | 40 | 11.3 | 29.0 | 0.00 | 0.00 | 0.00 | 70 | 1009.1 |
| 20260506070503 | 10 | 37 | 12.9 | 29.0 | 0.00 | 0.00 | 0.00 | 71 | 1009.0 |
| 20260506062014 | 9 | 27 | 11.3 | 22.5 | 0.00 | 0.00 | 0.00 | 76 | 1009.1 |
| 20260506061217 | 9 | 29 | 9.7 | 24.1 | 0.00 | 0.00 | 0.00 | 76 | 1009.2 |
| 20260506060503 | 9 | 22 | 11.3 | 22.5 | 0.00 | 0.00 | 0.00 | 76 | 1009.3 |
| 20260506051003 | 7 | 25 | 4.8 | 12.9 | 0.00 | 0.00 | 0.00 | 81 | 1009.1 |
| 20260506050718 | 7 | 24 | 4.8 | 12.9 | 0.00 | 0.00 | 0.00 | 81 | 1009.1 |
| 20260506045003 | 7 | 18 | 4.8 | 16.1 | 0.00 | 0.00 | 0.00 | 81 | 1008.9 |
| 20260506044503 | 7 | 22 | 3.2 | 16.1 | 0.00 | 0.00 | 0.00 | 81 | 1009.1 |
| 20260506044003 | 7 | 23 | 4.8 | 12.9 | 0.00 | 0.00 | 0.00 | 82 | 1009.0 |
| 20260506043503 | 6 | 20 | 4.8 | 12.9 | 0.00 | 0.00 | 0.00 | 82 | 1009.0 |
| 20260506043003 | 6 | 21 | 4.8 | 12.9 | 0.00 | 0.00 | 0.00 | 83 | 1009.0 |
| 20260506042503 | 6 | 25 | 4.8 | 12.9 | 0.00 | 0.00 | 0.00 | 83 | 1008.9 |
| 20260506042003 | 6 | 23 | 4.8 | 12.9 | 0.00 | 0.00 | 0.00 | 83 | 1009.1 |
| 20260506041503 | 6 | 20 | 4.8 | 11.3 | 0.00 | 0.00 | 0.00 | 83 | 1009.0 |
| 20260506041003 | 6 | 15 | 4.8 | 11.3 | 0.00 | 0.00 | 0.00 | 83 | 1009.1 |
| 20260506040717 | 6 | 14 | 4.8 | 11.3 | 0.00 | 0.00 | 0.00 | 83 | 1009.1 |
| 20260506040003 | 6 | 20 | 4.8 | 12.9 | 0.00 | 0.00 | 0.00 | 84 | 1009.0 |
| 20260506035503 | 6 | 20 | 3.2 | 12.9 | 0.00 | 0.00 | 0.00 | 84 | 1009.0 |
| 20260506035003 | 6 | 19 | 3.2 | 8.0 | 0.00 | 0.00 | 0.00 | 84 | 1009.0 |
| 20260506034717 | 6 | 20 | 1.6 | 4.8 | 0.00 | 0.00 | 0.00 | 84 | 1009.1 |
| 20260506034003 | 6 | 18 | 1.6 | 6.4 | 0.00 | 0.00 | 0.00 | 84 | 1009.0 |
| 20260506033717 | 6 | 18 | 1.6 | 6.4 | 0.00 | 0.00 | 0.00 | 84 | 1008.9 |
| 20260506033004 | 6 | 18 | 1.6 | 4.8 | 0.00 | 0.00 | 0.00 | 84 | 1009.1 |
| 20260506032503 | 6 | 17 | 1.6 | 6.4 | 0.00 | 0.00 | 0.00 | 84 | 1009.0 |
| 20260506032218 | 6 | 17 | 1.6 | 6.4 | 0.00 | 0.00 | 0.00 | 84 | 1009.1 |
| 20260506031503 | 6 | 18 | 1.6 | 8.0 | 0.00 | 0.00 | 0.00 | 84 | 1009.3 |
| 20260506031003 | 6 | 20 | 1.6 | 11.3 | 0.00 | 0.00 | 0.00 | 84 | 1009.2 |
| 20260506030717 | 6 | 23 | 3.2 | 11.3 | 0.00 | 0.00 | 0.00 | 84 | 1009.2 |
| 20260506030003 | 6 | 20 | 3.2 | 11.3 | 0.00 | 0.00 | 0.00 | 84 | 1009.2 |
| 20260506025503 | 6 | 18 | 1.6 | 8.0 | 0.00 | 0.00 | 0.00 | 84 | 1009.2 |
| 20260506025218 | 6 | 17 | 1.6 | 8.0 | 0.00 | 0.00 | 0.00 | 84 | 1009.4 |
| 20260506024717 | 6 | 17 | 1.6 | 6.4 | 0.00 | 0.00 | 0.00 | 84 | 1009.5 |
| 20260506024003 | 6 | 19 | 1.6 | 6.4 | 0.00 | 0.00 | 0.00 | 84 | 1009.4 |
| 20260506023503 | 6 | 21 | 1.6 | 6.4 | 0.00 | 0.00 | 0.00 | 84 | 1009.5 |
| 20260506023003 | 6 | 18 | 1.6 | 6.4 | 0.00 | 0.00 | 0.00 | 84 | 1009.3 |
| 20260506022503 | 6 | 16 | 1.6 | 6.4 | 0.00 | 0.00 | 0.00 | 83 | 1009.5 |
| 20260506022003 | 6 | 18 | 0.0 | 4.8 | 0.00 | 0.00 | 0.00 | 83 | 1009.6 |
| 20260506021503 | 6 | 17 | 0.0 | 4.8 | 0.00 | 0.00 | 0.00 | 83 | 1009.6 |
| 20260506021003 | 6 | 0 | 0.0 | 0.0 | 0.00 | 0.00 | 0.00 | 83 | 1009.4 |
| 20260506020503 | 6 | 18 | 0.0 | 4.8 | 0.00 | 0.00 | 0.00 | 83 | 1009.5 |
| 20260506020003 | 6 | 19 | 0.0 | 4.8 | 0.00 | 0.00 | 0.00 | 83 | 1009.4 |
| 20260506015503 | 7 | 20 | 0.0 | 4.8 | 0.00 | 0.00 | 0.00 | 83 | 1009.4 |
| 20260506015003 | 7 | 19 | 0.0 | 4.8 | 0.00 | 0.00 | 0.00 | 83 | 1009.5 |
| 20260506014503 | 7 | 21 | 1.6 | 4.8 | 0.00 | 0.00 | 0.00 | 83 | 1009.6 |
| 20260506014218 | 7 | 21 | 1.6 | 6.4 | 0.00 | 0.00 | 0.00 | 83 | 1009.6 |
| 20260506013503 | 7 | 22 | 1.6 | 6.4 | 0.00 | 0.00 | 0.00 | 83 | 1009.6 |
| 20260506013003 | 7 | 22 | 1.6 | 6.4 | 0.00 | 0.00 | 0.00 | 84 | 1009.8 |
| 20260506012503 | 7 | 22 | 1.6 | 6.4 | 0.00 | 0.00 | 0.00 | 84 | 1009.7 |
| 20260506012217 | 7 | 26 | 1.6 | 6.4 | 0.00 | 0.00 | 0.00 | 83 | 1009.8 |
| 20260506011503 | 7 | 28 | 1.6 | 6.4 | 0.00 | 0.00 | 0.00 | 84 | 1009.7 |
| 20260506011003 | 7 | 26 | 1.6 | 4.8 | 0.00 | 0.00 | 0.00 | 83 | 1009.8 |
| 20260506010503 | 7 | 27 | 1.6 | 4.8 | 0.00 | 0.00 | 0.00 | 83 | 1009.8 |
| 20260506010003 | 7 | 24 | 1.6 | 4.8 | 0.00 | 0.00 | 0.00 | 83 | 1009.7 |
| 20260506005503 | 7 | 25 | 1.6 | 4.8 | 0.00 | 0.00 | 0.00 | 83 | 1009.7 |
| 20260506005003 | 7 | 29 | 1.6 | 4.8 | 0.00 | 0.00 | 0.00 | 83 | 1009.6 |
| 20260506004503 | 7 | 32 | 0.0 | 4.8 | 0.00 | 0.00 | 0.00 | 83 | 1009.7 |
| 20260506004217 | 7 | 32 | 0.0 | 4.8 | 0.00 | 0.00 | 0.00 | 83 | 1009.7 |
| 20260506003503 | 7 | 33 | 0.0 | 1.6 | 0.00 | 0.00 | 0.00 | 83 | 1009.7 |
| 20260506003003 | 6 | 0 | 0.0 | 0.0 | 0.00 | 0.00 | 0.00 | 82 | 1009.9 |
| 20260506002503 | 7 | 33 | 0.0 | 1.6 | 0.00 | 0.00 | 0.00 | 81 | 1010.0 |
| 20260506002003 | 7 | 26 | 1.6 | 4.8 | 0.00 | 0.00 | 0.00 | 81 | 1009.6 |
| 20260506001503 | 7 | 25 | 1.6 | 4.8 | 0.00 | 0.00 | 0.00 | 81 | 1009.8 |
| 20260506001003 | 7 | 26 | 1.6 | 4.8 | 0.00 | 0.00 | 0.00 | 81 | 1009.9 |
| 20260506000718 | 7 | 28 | 0.0 | 4.8 | 0.00 | 0.00 | 0.00 | 80 | 1010.1 |
| 20260506000003 | 7 | 29 | 0.0 | 1.6 | 0.00 | 0.00 | 0.00 | 80 | 1010.0 |
| 20260505235503 | 7 | 27 | 0.0 | 4.8 | 0.00 | 0.00 | 0.00 | 79 | 1010.0 |
| 20260505235217 | 7 | 24 | 1.6 | 4.8 | 0.00 | 0.00 | 0.00 | 79 | 1009.9 |
| 20260505234503 | 7 | 23 | 1.6 | 6.4 | 0.00 | 0.00 | 0.00 | 80 | 1009.9 |
| 20260505234003 | 7 | 25 | 0.0 | 6.4 | 0.00 | 0.00 | 0.00 | 80 | 1010.3 |
| 20260505233503 | 7 | 0 | 0.0 | 1.6 | 0.00 | 0.00 | 0.00 | 80 | 1010.2 |
| 20260505233003 | 7 | 28 | 0.0 | 1.6 | 0.00 | 0.00 | 0.00 | 80 | 1010.1 |
| 20260505232503 | 7 | 28 | 0.0 | 1.6 | 0.00 | 0.00 | 0.00 | 81 | 1010.2 |
| 20260505232003 | 7 | 22 | 0.0 | 4.8 | 0.00 | 0.00 | 0.00 | 80 | 1010.1 |
| 20260505231503 | 7 | 21 | 0.0 | 4.8 | 0.00 | 0.00 | 0.00 | 80 | 1010.1 |
| 20260505231003 | 7 | 20 | 0.0 | 4.8 | 0.00 | 0.00 | 0.00 | 80 | 1010.0 |
| 20260505230503 | 7 | 3 | 0.0 | 4.8 | 0.00 | 0.00 | 0.00 | 80 | 1010.3 |
| 20260505230003 | 7 | 357 | 0.0 | 4.8 | 0.00 | 0.00 | 0.00 | 79 | 1009.9 |
| 20260505225503 | 7 | 16 | 0.0 | 4.8 | 0.00 | 0.00 | 0.00 | 79 | 1010.1 |
| 20260505225003 | 7 | 20 | 1.6 | 4.8 | 0.00 | 0.00 | 0.00 | 79 | 1010.2 |
| 20260505224503 | 7 | 21 | 1.6 | 4.8 | 0.00 | 0.00 | 0.00 | 79 | 1010.2 |
| 20260505224003 | 7 | 21 | 1.6 | 4.8 | 0.00 | 0.00 | 0.00 | 78 | 1010.1 |
| 20260505223503 | 7 | 21 | 3.2 | 6.4 | 0.00 | 0.00 | 0.00 | 78 | 1010.2 |
| 20260505223003 | 8 | 18 | 3.2 | 6.4 | 0.00 | 0.00 | 0.00 | 78 | 1010.2 |
| 20260505222503 | 8 | 17 | 3.2 | 6.4 | 0.00 | 0.00 | 0.00 | 78 | 1010.2 |
| 20260505222003 | 8 | 23 | 3.2 | 6.4 | 0.00 | 0.00 | 0.00 | 78 | 1010.3 |
| 20260505221503 | 8 | 22 | 3.2 | 6.4 | 0.00 | 0.00 | 0.00 | 78 | 1010.1 |
| 20260505221003 | 8 | 19 | 3.2 | 8.0 | 0.00 | 0.00 | 0.00 | 78 | 1010.3 |
| 20260505220717 | 8 | 18 | 3.2 | 8.0 | 0.00 | 0.00 | 0.00 | 77 | 1010.3 |
| 20260505220003 | 8 | 15 | 3.2 | 8.0 | 0.00 | 0.00 | 0.00 | 77 | 1010.2 |
| 20260505215503 | 8 | 15 | 1.6 | 8.0 | 0.00 | 0.00 | 0.00 | 76 | 1010.4 |
| 20260505215003 | 8 | 19 | 1.6 | 4.8 | 0.00 | 0.00 | 0.00 | 76 | 1010.4 |
| 20260505214717 | 8 | 22 | 1.6 | 4.8 | 0.00 | 0.00 | 0.00 | 76 | 1010.5 |
| 20260505214003 | 8 | 23 | 1.6 | 6.4 | 0.00 | 0.00 | 0.00 | 76 | 1010.1 |
| 20260505213503 | 8 | 23 | 1.6 | 6.4 | 0.00 | 0.00 | 0.00 | 75 | 1010.4 |